This demonstration page uses our WeatherBlox Daily Observations layout. Learn more.

Left ArrowRight Arrow

34.16533, -84.80231

Hourly Observations for August 30, 2018

Temp ( °F °C ) Dew Point ( °F °C ) Humidity (%) Winds ( mph kmh ) Pressure ( in mb ) Visibility ( mi km ) Precip ( " mm )
12:53 am 00:53 Clear 74 23.3 70 21.1 88 88 Calm 30.12 1020 10 16 0.00 0.00
1:53 am 01:53 Clear 70 21.1 69 20.6 97 97 Calm 30.11 1020 10 16 0.00 0.00
2:53 am 02:53 Clear 68 20 68 20 100 100 SSE 3 6 30.10 1019 10 16 0.00 0.00
3:53 am 03:53 Clear 67 19.4 67 19.4 100 100 Calm 30.11 1020 10 16 0.00 0.00
4:53 am 04:53 Clear 66 18.9 66 18.9 100 100 Calm 30.12 1020 10 16 0.00 0.00
5:53 am 05:53 Mostly Cloudy 67 19.4 67 19.4 100 100 Calm 30.13 1020 10 16 0.00 0.00
6:53 am 06:53 Mostly Cloudy 67 19.4 67 19.4 100 100 Calm 30.14 1021 10 16 0.00 0.00
7:53 am 07:53 Cloudy 69 20.6 69 20.6 100 100 Calm 30.15 1021 10 16 0.00 0.00
8:53 am 08:53 Sunny 72 22.2 70 21.1 94 94 Calm 30.15 1021 10 16 0.00 0.00
9:53 am 09:53 Mostly Sunny 74 23.3 71 21.7 91 91 Calm 30.15 1021 10 16 0.00 0.00
10:53 am 10:53 Sunny 81 27.2 71 21.7 72 72 Calm 30.14 1021 10 16 0.00 0.00
11:53 am 11:53 Sunny 83 28.3 68 20 61 61 VRB 6 9 30.13 1020 10 16 0.00 0.00
12:53 pm 12:53 Sunny 87 30.6 67 19.4 51 51 SSW 5 7 30.11 1020 10 16 0.00 0.00
1:53 pm 13:53 Sunny 90 32.2 65 18.3 44 44 SSE 8 13 30.09 1019 10 16 0.00 0.00
2:53 pm 14:53 Sunny 90 32.2 65 18.3 44 44 VRB 3 6 30.06 1018 10 16 0.00 0.00
3:53 pm 15:53 Sunny 92 33.3 64 17.8 40 40 VRB 6 9 30.05 1018 10 16 0.00 0.00
4:53 pm 16:53 Mostly Sunny 89 31.7 65 18.3 45 45 undefined N/A 30.03 1017 10 16 0.00 0.00
5:53 pm 17:53 Sunny 89 31.7 67 19.4 48 48 VRB 6 9 30.02 1017 10 16 0.00 0.00
6:53 pm 18:53 Sunny 86 30 67 19.4 53 53 S 7 11 30.03 1017 10 16 0.00 0.00
7:53 pm 19:53 Sunny 82 27.8 69 20.6 65 65 S 5 7 30.04 1017 10 16 0.00 0.00
8:53 pm 20:53 Clear 78 25.6 70 21.1 76 76 S 3 6 30.06 1018 10 16 0.00 0.00
9:53 pm 21:53 Clear 77 25 70 21.1 79 79 S 3 6 30.09 1019 10 16 0.00 0.00
10:53 pm 22:53 Clear 78 25.6 70 21.1 76 76 S 6 9 30.09 1019 10 16 0.00 0.00
11:53 pm 23:53 Clear 77 25 70 21.1 79 79 Calm 30.11 1020 10 16 0.00 0.00

Powered by AerisWeather